Home > Weather > Yokosuka > Past weeks

Flag for Japan Past Weather in Yokosuka, Japan — Yesterday and Last 2 Weeks

Now
77 °F

Sunny.


Feels Like: 79 °F
Forecast: 66 / 73 °F
Wind: 23 mph from South

Location: Tokyo International Airport

Current Time: May 24, 2016 at 5:16:21 PM

Latest Report: May 24, 2016 at 4:30 PM


Visibility: 10 mi

Pressure: 29.86 "Hg

Humidity: 47%

Dew Point: 55 °F

Location of YokosukaLocation

Past Weather in Yokosuka — Graph

°F

Yokosuka Temperature Yesterday

Maximum temperature yesterday: 84 °F (at 1:00 PM)
Minimum temperature yesterday: 64 °F (at 3:30 AM)
Average temperature yesterday: 74 °F

High & Low Weather Summary for the Past Weeks

 TemperatureHumidityPressure
High84 °F (May 23, 1:00 PM)100% (May 9, 9:30 PM)30.27 "Hg (May 9, 9:30 PM)
Low57 °F (May 15, 1:30 AM)31% (May 23, 3:00 PM)29.42 "Hg (May 11, 2:00 PM)
Average68 °F71%29.96 "Hg
* Reported May 9 4:00 PM — May 24 4:00 PM, Yokosuka, Weather by CustomWeather, © 2016

Note: Actual official high and low records may vary slightly from our data, if they occured in-between our weather recording intervals... More about our weather records

Advertising

Yokosuka Weather History for the Previous 24 Hours

Scroll right to see more
 ConditionsComfort  
Time TempWeatherWind HumidityBarometerVisibility
4:00 PM
Tue, May 24
77 °FPartly sunny.22 mph44%29.89 "HgN/A
3:30 PM77 °FPartly sunny.24 mph42%29.89 "HgN/A
3:00 PM79 °FSunny.20 mph37%29.86 "Hg10 mi
2:30 PM79 °FSunny.22 mph39%29.89 "Hg10 mi
2:00 PM82 °FPartly sunny.21 mph37%29.89 "HgN/A
1:30 PM82 °FPartly sunny.21 mph35%29.89 "HgN/A
1:00 PM81 °FSunny.21 mph37%29.89 "Hg10 mi
12:30 PM81 °FSunny.20 mph39%29.89 "Hg10 mi
12:00 PM82 °FSunny.18 mph42%29.92 "Hg10 mi
11:30 AM81 °FSunny.15 mph51%29.92 "Hg10 mi
11:00 AM81 °FSunny.16 mph51%29.92 "Hg10 mi
10:30 AM79 °FSunny.14 mph58%29.92 "Hg10 mi
10:00 AM77 °FSunny.12 mph65%29.95 "Hg10 mi
9:30 AM77 °FSunny.13 mph65%29.95 "Hg10 mi
9:00 AM77 °FSunny.9 mph57%29.95 "Hg10 mi
8:30 AM77 °FSunny.9 mph61%29.95 "Hg10 mi
8:00 AM75 °FSunny.5 mph54%29.95 "Hg10 mi
7:30 AM75 °FPartly sunny.3 mph57%29.95 "HgN/A
7:00 AM72 °FPartly sunny.5 mph65%29.92 "HgN/A
6:30 AM72 °FPartly sunny.5 mph65%29.92 "HgN/A
6:00 AM70 °FSunny.7 mph69%29.92 "Hg10 mi
5:30 AM70 °FPassing clouds.3 mph69%29.92 "HgN/A
5:00 AM70 °FSunny.2 mph69%29.92 "Hg10 mi
4:30 AM68 °FSunny.2 mph73%29.92 "Hg10 mi
4:00 AM70 °FClear.3 mph69%29.92 "Hg10 mi
3:30 AM70 °FClear.3 mph69%29.92 "Hg10 mi
3:00 AM70 °FClear.3 mph69%29.92 "Hg10 mi
2:30 AM70 °FPassing clouds.5 mph69%29.92 "HgN/A
2:00 AM70 °FClear.9 mph64%29.92 "Hg10 mi
1:30 AM72 °FPassing clouds.9 mph65%29.89 "HgN/A
1:00 AM70 °FPassing clouds.9 mph64%29.92 "HgN/A
12:30 AM72 °FClear.9 mph61%29.92 "Hg10 mi
12:00 AM72 °FPassing clouds.9 mph65%29.92 "HgN/A
11:30 PM
Mon, May 23
72 °FClear.9 mph65%29.92 "Hg10 mi
11:00 PM72 °FClear.8 mph57%29.92 "Hg10 mi
10:30 PM73 °FClear.7 mph53%29.92 "Hg10 mi
10:00 PM73 °FClear.7 mph53%29.92 "Hg10 mi
9:30 PM73 °FClear.8 mph57%29.92 "Hg10 mi
9:00 PM73 °FClear.9 mph53%29.92 "Hg10 mi
8:30 PM75 °FClear.10 mph47%29.92 "Hg10 mi
8:00 PM75 °FClear.10 mph47%29.89 "Hg10 mi
7:30 PM75 °FClear.10 mph47%29.89 "Hg10 mi
7:00 PM77 °FClear.12 mph42%29.89 "Hg10 mi
6:30 PM79 °FSunny.13 mph37%29.89 "Hg10 mi
6:00 PM81 °FSunny.13 mph39%29.86 "Hg10 mi
5:30 PM81 °FSunny.9 mph45%29.86 "Hg10 mi
5:00 PM82 °FSunny.12 mph40%29.86 "Hg10 mi
Weather by CustomWeather, © 2016

See weather overviewHow to use our weather pages